カタログに戻る

FENGYUN 1C DEB

運用中SSO
NORAD 30398·DEBRIS·🇨🇳 China

打ち上げ May 10, 1999 から Taiyuan Satellite Launch Center

Loading…

次のパス (今後24時間)

TLE

最新Source: Space-Track

元期: Sep 13, 2026, 13:29 UTC

1 30398U 99025ADM 26256.56196852  .00000271  00000-0  28060-3 0  9990
2 30398  99.6944 164.6478 0172455 299.4688 184.2000 13.78937160985442

AllMySatでFENGYUN 1C DEBをリアルタイム追跡

Download on the App Store